EDT,Max TemperatureF,Mean TemperatureF,Min TemperatureF,Max Dew PointF,MeanDew PointF,Min DewpointF,Max Humidity, Mean Humidity, Min Humidity, Max Sea Level PressureIn, Mean Sea Level PressureIn, Min Sea Level PressureIn, Max VisibilityMiles, Mean VisibilityMiles, Min VisibilityMiles, Max Wind SpeedMPH, Mean Wind SpeedMPH, Max Gust SpeedMPH,PrecipitationIn, CloudCover, Events, WindDirDegrees
2012-10-1,61,56,50,54,52,48,100,86,72,29.83,29.66,29.61,10,10,2,16,8,22,0.12,6,Rain,208
2012-10-2,72,61,50,57,53,48,96,77,57,30.04,29.95,29.84,10,10,10,12,5,16,0.00,4,,229
2012-10-3,71,62,53,58,55,52,100,77,53,30.19,30.12,30.04,10,10,5,9,1,13,T,6,Fog,244
2012-10-4,61,57,52,59,54,50,100,86,72,30.21,30.14,30.04,10,8,2,9,3,12,0.64,8,Rain,119
2012-10-5,66,59,52,59,55,51,100,87,73,30.03,29.95,29.88,10,5,0,15,4,18,0.01,7,Fog,176
2012-10-6,66,55,44,61,56,46,100,91,81,29.89,29.77,29.63,10,6,2,23,9,32,0.36,8,Rain,185
2012-10-7,56,48,40,46,42,38,100,77,54,30.04,29.99,29.85,10,10,10,12,3,15,0.13,5,Rain,254
2012-10-8,55,45,35,45,38,31,100,72,44,30.37,30.18,30.03,10,9,4,17,6,20,0.46,5,Fog-Rain,308
2012-10-9,56,45,33,38,35,32,100,72,43,30.40,30.32,30.19,10,10,10,12,2,21,0.00,4,,57
2012-10-10,57,46,35,57,47,35,100,89,77,30.19,29.92,29.57,10,8,2,17,3,24,0.57,7,Rain,145
2012-10-11,53,44,35,52,36,24,92,64,36,30.06,29.85,29.60,10,10,10,23,9,37,0.01,4,,276
2012-10-12,50,42,34,42,31,22,92,69,45,30.25,30.03,29.89,10,10,10,29,8,37,0.06,5,Rain,267
2012-10-13,48,39,29,28,24,19,82,57,31,30.38,30.32,30.27,10,10,10,16,6,25,0.00,2,,272
2012-10-14,49,43,37,46,41,28,100,85,70,30.29,30.09,29.95,10,8,2,10,4,16,0.30,8,Rain,122
2012-10-15,64,55,45,59,54,44,100,92,84,29.94,29.73,29.57,10,8,1,17,5,22,0.14,8,Rain,174
2012-10-16,59,49,39,59,48,33,100,83,65,29.79,29.57,29.50,10,7,2,22,9,26,0.62,8,Rain,322
2012-10-17,58,44,29,35,31,27,92,61,30,30.01,29.91,29.80,10,10,10,14,5,17,0.00,1,,282
2012-10-18,61,47,33,46,37,32,100,70,39,30.19,30.12,30.02,10,10,10,16,3,24,0.00,2,Fog,175
2012-10-19,62,51,39,58,48,39,100,82,64,30.18,30.09,29.85,10,7,2,22,4,29,0.20,7,Rain,117
2012-10-20,64,61,57,63,62,58,100,97,93,29.83,29.71,29.61,10,4,0,15,9,22,1.82,8,Fog-Rain,155
2012-10-21,60,53,46,57,45,39,100,73,46,29.74,29.70,29.64,10,9,3,15,5,22,0.00,6,,255
2012-10-22,56,52,47,41,38,35,77,64,50,29.91,29.79,29.73,10,10,10,29,7,39,0.00,5,,284
2012-10-23,56,45,33,34,31,28,70,54,38,30.13,30.02,29.92,10,10,10,22,10,28,0.00,1,,301
2012-10-24,58,44,29,31,27,20,92,58,23,30.25,30.16,30.11,10,10,10,14,3,16,0.00,1,,324
2012-10-25,54,41,27,32,28,25,92,64,35,30.37,30.31,30.26,10,10,10,7,0,13,0.00,0,Fog,17
2012-10-26,60,46,31,49,43,31,100,82,64,30.28,30.21,30.14,10,6,0,9,2,12,0.00,5,Fog,184
2012-10-27,67,53,39,50,45,39,100,74,48,30.14,30.11,30.04,10,4,0,6,0,7,0.00,5,Fog,350
2012-10-28,53,47,41,49,44,36,93,85,77,30.13,30.06,29.97,10,9,1,14,7,17,0.00,7,,16
2012-10-29,60,55,49,55,53,49,100,90,80,29.95,29.83,29.71,10,6,2,30,12,39,0.09,8,Rain,56
2012-10-30,66,62,57,61,60,55,97,92,87,29.76,29.71,29.64,10,5,1,29,17,43,1.31,8,Rain-Thunderstorm,112
2012-10-31,64,57,49,61,57,49,100,89,78,29.65,29.57,29.51,10,9,2,17,9,23,0.12,7,Rain,134